Flag for Germany Weather past 2 weeks in Verden (Aller), Lower Saxony, Germany

Now
77 °F

Sunny.


Feels Like: 79 °F
Forecast: 68 / 96 °F
Wind: 7 mph from Northeast

Location: Bremen Airport

Current Time: Jul 3, 2015 at 11:27:47 PM

Latest Report: Jul 3, 2015 at 10:50 PM


Visibility: 10 mi

Pressure: 30.21 "Hg

Humidity: 69%

Dew point: 66 °F

Location of Verden (Aller)Location

Historic Weather in Verden (Aller) — Graph

°F

Verden (Aller) temperature yesterday

Maximum temperature yesterday: 91 °F (at 2:50 PM)
Minimum temperature yesterday: 66 °F (at 4:50 AM)
Average temperature yesterday: 80 °F

Past Weeks' High & Low Weather Summary

 TemperatureHumidityPressure
High91 °F (Jul 2, 2:50 PM)100% (Jun 21, 3:20 AM)30.27 "Hg (Jun 21, 3:20 AM)
Low46 °F (Jun 20, 11:20 PM)30% (Jul 2, 3:20 PM)29.65 "Hg (Jun 22, 7:50 PM)
Average63 °F72%30.05 "Hg
* Reported Jun 18 10:20 PM — Jul 3 10:20 PM, Verden (Aller), Weather by CustomWeather, © 2015

Note: Actual official high and low records may vary slightly from our data, if they occured in-between our weather recording intervals... More about our weather records

Advertising

Verden (Aller) weather history for previous 24 hours

 ConditionsComfort  
Time TempWeatherWind HumidityBarometerVisibility
10:20 PM
Fri, Jul 3
77 °FSunny.7 mph65%30.21 "Hg10 mi
9:50 PM77 °FSunny.7 mph65%30.21 "Hg10 mi
9:20 PM79 °FPassing clouds.7 mph61%30.21 "HgN/A
8:50 PM79 °FPassing clouds.8 mph61%30.21 "HgN/A
8:20 PM81 °FPassing clouds.10 mph62%30.21 "HgN/A
7:50 PM81 °FPassing clouds.10 mph62%30.21 "HgN/A
7:20 PM82 °FSunny.10 mph58%30.21 "Hg10 mi
6:50 PM82 °FPassing clouds.9 mph58%30.21 "HgN/A
6:20 PM82 °FPassing clouds.10 mph58%30.21 "HgN/A
5:50 PM82 °FPassing clouds.12 mph58%30.24 "HgN/A
5:20 PM82 °FPassing clouds.8 mph58%30.24 "HgN/A
4:50 PM84 °FPassing clouds.8 mph55%30.24 "HgN/A
4:20 PM86 °FPassing clouds.8 mph46%30.24 "HgN/A
3:50 PM86 °FPartly sunny.7 mph46%30.24 "HgN/A
3:20 PM86 °FPartly sunny.9 mph49%30.24 "HgN/A
2:50 PM84 °FPartly sunny.7 mph48%30.24 "HgN/A
2:20 PM84 °FPartly sunny.8 mph51%30.24 "HgN/A
1:50 PM84 °FPassing clouds.9 mph51%30.24 "HgN/A
1:20 PM84 °FPassing clouds.8 mph51%30.24 "HgN/A
12:50 PM81 °FPassing clouds.7 mph62%30.24 "HgN/A
12:20 PM79 °FPassing clouds.8 mph70%30.24 "HgN/A
11:50 AM77 °FPassing clouds.7 mph65%30.27 "HgN/A
11:20 AM75 °FPassing clouds.7 mph74%30.27 "HgN/A
10:50 AM75 °FPassing clouds.6 mph69%30.27 "HgN/A
10:20 AM73 °FPassing clouds.6 mph78%30.24 "HgN/A
9:50 AM72 °FPassing clouds.5 mph78%30.24 "HgN/A
9:20 AM72 °FSunny.2 mph78%30.24 "Hg10 mi
8:50 AM70 °FSunny.1 mph83%30.24 "Hg10 mi
8:20 AM70 °FPassing clouds.3 mph83%30.21 "HgN/A
7:50 AM68 °FBroken clouds.7 mph88%30.21 "HgN/A
7:20 AM68 °FSprinkles. Broken clouds.5 mph83%30.21 "HgN/A
6:50 AM68 °FSprinkles. Partly sunny.13 mph83%30.18 "HgN/A
6:20 AM70 °FMild.16 mph78%30.24 "HgN/A
5:50 AM72 °FSprinkles. Partly cloudy.17 mph73%30.18 "HgN/A
5:20 AM72 °FThunderstorms. Partly cloudy.20 mph73%30.18 "HgN/A
4:50 AM73 °FThunderstorms. Partly cloudy.12 mph65%30.21 "HgN/A
4:20 AM73 °FPassing clouds.12 mph65%30.24 "HgN/A
3:50 AM72 °FClear.14 mph69%30.21 "Hg10 mi
3:20 AM72 °FClear.15 mph73%30.21 "Hg10 mi
2:50 AM73 °FPassing clouds.15 mph65%30.18 "HgN/A
2:20 AM73 °FClear.13 mph53%30.18 "Hg10 mi
1:50 AM75 °FClear.7 mph50%30.15 "Hg10 mi
1:20 AM77 °FClear.8 mph47%30.12 "Hg10 mi
12:50 AM77 °FClear.9 mph47%30.12 "Hg10 mi
12:20 AM79 °FClear.12 mph45%30.12 "Hg10 mi
11:50 PM
Thu, Jul 2
79 °FClear.9 mph48%30.12 "Hg10 mi
11:20 PM81 °FClear.10 mph45%30.12 "Hg10 mi
Weather by CustomWeather, © 2015

See weather overviewHow to use our weather pages